TimeCDT,TemperatureF,Dew PointF,Humidity,Sea Level PressureIn,VisibilityMPH,Wind Direction,Wind SpeedMPH,Gust SpeedMPH,PrecipitationIn,Events,Conditions,WindDirDegrees,DateUTC
12:15 AM,72.9,68.2,85,29.86,10.0,ESE,6.9,-,N/A,,Clear,110,2014-06-22 05:15:00
12:35 AM,72.0,68.2,88,29.85,10.0,East,4.6,-,N/A,,Clear,90,2014-06-22 05:35:00
12:55 AM,71.8,68.2,88,29.85,10.0,East,5.8,-,N/A,,Clear,80,2014-06-22 05:55:00
1:15 AM,71.8,68.2,88,29.84,10.0,NE,5.8,-,N/A,,Scattered Clouds,50,2014-06-22 06:15:00
1:35 AM,71.6,68.2,89,29.82,10.0,East,5.8,-,N/A,,Scattered Clouds,90,2014-06-22 06:35:00
1:55 AM,71.1,68.2,91,29.82,10.0,East,4.6,-,N/A,Thunderstorm,Clear,100,2014-06-22 06:55:00
2:15 AM,71.1,68.0,90,29.82,10.0,East,5.8,-,N/A,,Clear,90,2014-06-22 07:15:00
2:35 AM,71.1,68.0,90,29.81,10.0,East,3.5,-,N/A,Thunderstorm,Scattered Clouds,80,2014-06-22 07:35:00
2:55 AM,71.4,68.9,92,29.82,10.0,NW,9.2,-,N/A,Thunderstorm,Mostly Cloudy,310,2014-06-22 07:55:00
3:15 AM,72.9,67.6,84,29.82,10.0,West,5.8,-,N/A,Rain-Thunderstorm,Light Thunderstorms and Rain,260,2014-06-22 08:15:00
3:35 AM,70.3,62.2,75,29.83,10.0,SW,15.0,-,N/A,,Scattered Clouds,220,2014-06-22 08:35:00
3:55 AM,67.3,60.8,80,29.86,10.0,WNW,9.2,17.3,N/A,Rain-Thunderstorm,Light Thunderstorms and Rain,300,2014-06-22 08:55:00
4:15 AM,68.2,59.0,72,29.84,10.0,West,9.2,-,N/A,Rain-Thunderstorm,Light Thunderstorms and Rain,270,2014-06-22 09:15:00
4:35 AM,67.1,58.5,74,29.83,10.0,West,9.2,-,N/A,Rain,Light Rain,270,2014-06-22 09:35:00
4:55 AM,65.3,59.5,82,29.83,10.0,NW,8.1,-,0.01,Rain,Rain,310,2014-06-22 09:55:00
5:35 AM,64.9,59.5,83,29.84,10.0,North,13.8,18.4,0.05,Rain,Light Rain,350,2014-06-22 10:35:00
5:55 AM,65.3,60.6,85,29.86,10.0,NNW,11.5,20.7,0.06,Rain-Thunderstorm,Rain,340,2014-06-22 10:55:00
6:15 AM,65.7,61.3,86,29.86,10.0,NNW,10.4,-,0.01,Rain,Light Rain,340,2014-06-22 11:15:00
6:35 AM,66.6,62.2,86,29.87,10.0,North,10.4,16.1,0.01,,Light Drizzle,350,2014-06-22 11:35:00
6:55 AM,66.9,62.6,86,29.88,10.0,North,9.2,-,0.01,,Mostly Cloudy,360,2014-06-22 11:55:00
7:15 AM,66.6,62.8,88,29.89,10.0,NNW,3.5,-,N/A,,Drizzle,330,2014-06-22 12:15:00
7:35 AM,66.7,63.3,89,29.88,10.0,Calm,Calm,-,N/A,,Light Drizzle,0,2014-06-22 12:35:00
7:55 AM,67.1,63.5,88,29.88,10.0,Calm,Calm,-,N/A,,Overcast,0,2014-06-22 12:55:00
8:15 AM,67.1,63.0,87,29.89,10.0,NE,4.6,-,N/A,,Overcast,50,2014-06-22 13:15:00
8:35 AM,66.7,63.3,89,29.89,10.0,ENE,8.1,-,N/A,,Overcast,70,2014-06-22 13:35:00
8:55 AM,66.7,63.3,89,29.90,10.0,East,8.1,-,N/A,,Overcast,80,2014-06-22 13:55:00
9:15 AM,66.9,63.9,90,29.90,10.0,East,8.1,-,N/A,,Mostly Cloudy,90,2014-06-22 14:15:00
9:35 AM,66.6,62.4,86,29.91,10.0,East,5.8,-,N/A,,Overcast,90,2014-06-22 14:35:00
9:55 AM,66.2,61.9,86,29.92,10.0,Calm,Calm,-,N/A,,Overcast,0,2014-06-22 14:55:00
10:15 AM,66.2,62.8,89,29.92,5.0,East,4.6,-,0.02,Rain,Light Rain,90,2014-06-22 15:15:00
10:35 AM,67.3,63.3,87,29.92,10.0,SSE,5.8,-,0.02,,Scattered Clouds,150,2014-06-22 15:35:00
11:15 AM,70.0,63.9,81,29.92,10.0,ESE,6.9,-,N/A,,Scattered Clouds,120,2014-06-22 16:15:00
11:35 AM,70.9,64.2,79,29.92,10.0,SE,4.6,-,N/A,,Scattered Clouds,130,2014-06-22 16:35:00
11:55 AM,71.8,63.0,74,29.92,10.0,Calm,Calm,-,N/A,,Clear,0,2014-06-22 16:55:00
12:15 PM,72.9,62.1,69,29.92,10.0,Calm,Calm,-,N/A,,Scattered Clouds,0,2014-06-22 17:15:00
12:35 PM,73.8,61.0,64,29.92,10.0,NW,4.6,-,N/A,,Scattered Clouds,310,2014-06-22 17:35:00
12:55 PM,74.3,62.1,65,29.92,10.0,NNW,6.9,-,N/A,,Scattered Clouds,330,2014-06-22 17:55:00
1:15 PM,75.0,62.4,65,29.92,10.0,NW,4.6,-,N/A,,Scattered Clouds,320,2014-06-22 18:15:00
1:35 PM,75.2,62.6,65,29.92,10.0,North,3.5,-,N/A,,Scattered Clouds,350,2014-06-22 18:35:00
1:55 PM,77.0,63.3,63,29.91,10.0,Calm,Calm,-,N/A,,Scattered Clouds,0,2014-06-22 18:55:00
2:15 PM,76.3,63.0,63,29.92,10.0,NNW,4.6,-,N/A,,Scattered Clouds,340,2014-06-22 19:15:00
2:35 PM,77.7,64.4,63,29.91,10.0,North,5.8,-,N/A,,Scattered Clouds,360,2014-06-22 19:35:00
2:55 PM,77.9,62.1,58,29.90,10.0,NNW,6.9,-,N/A,,Clear,340,2014-06-22 19:55:00
3:15 PM,78.6,62.2,57,29.90,10.0,NNW,5.8,-,N/A,,Clear,330,2014-06-22 20:15:00
3:35 PM,79.3,63.9,59,29.90,10.0,NNW,5.8,-,N/A,,Scattered Clouds,340,2014-06-22 20:35:00
3:55 PM,79.5,61.7,54,29.90,10.0,NNW,6.9,-,N/A,,Scattered Clouds,340,2014-06-22 20:55:00
4:15 PM,79.7,62.6,56,29.89,10.0,North,5.8,-,N/A,,Clear,10,2014-06-22 21:15:00
4:35 PM,79.3,62.2,56,29.89,10.0,North,6.9,-,N/A,,Scattered Clouds,360,2014-06-22 21:35:00
4:55 PM,79.9,61.3,53,29.89,10.0,North,6.9,-,N/A,,Scattered Clouds,360,2014-06-22 21:55:00
5:15 PM,79.7,62.1,55,29.89,10.0,NNW,6.9,-,N/A,,Scattered Clouds,330,2014-06-22 22:15:00
5:35 PM,78.8,64.4,61,29.89,10.0,NNW,8.1,-,N/A,,Scattered Clouds,340,2014-06-22 22:35:00
5:55 PM,79.0,63.1,58,29.87,10.0,North,9.2,-,N/A,,Scattered Clouds,10,2014-06-22 22:55:00
6:15 PM,79.3,62.6,56,29.86,10.0,North,12.7,-,N/A,,Clear,360,2014-06-22 23:15:00
6:35 PM,77.4,62.2,59,29.85,10.0,North,8.1,-,N/A,,Clear,10,2014-06-22 23:35:00
6:55 PM,77.9,63.1,60,29.85,10.0,North,5.8,-,N/A,,Clear,10,2014-06-22 23:55:00
7:15 PM,78.4,63.0,59,29.86,10.0,NNE,8.1,-,N/A,,Clear,30,2014-06-23 00:15:00
7:35 PM,77.0,63.1,62,29.86,10.0,NNE,5.8,-,N/A,,Clear,30,2014-06-23 00:35:00
7:55 PM,77.9,62.6,59,29.87,10.0,NE,8.1,-,N/A,,Scattered Clouds,40,2014-06-23 00:55:00
8:15 PM,76.3,63.3,64,29.89,10.0,North,3.5,-,N/A,,Clear,10,2014-06-23 01:15:00
8:35 PM,74.8,62.6,66,29.88,10.0,NNE,6.9,-,N/A,,Clear,20,2014-06-23 01:35:00
8:55 PM,74.1,63.7,70,29.88,10.0,NNE,3.5,-,N/A,,Clear,20,2014-06-23 01:55:00
9:35 PM,71.6,63.7,76,29.91,10.0,NNE,4.6,-,N/A,,Clear,20,2014-06-23 02:35:00
9:55 PM,70.9,63.7,78,29.90,10.0,NNE,4.6,-,N/A,,Clear,30,2014-06-23 02:55:00
10:15 PM,70.3,63.5,79,29.91,10.0,North,5.8,-,N/A,,Scattered Clouds,10,2014-06-23 03:15:00
10:35 PM,70.0,63.0,78,29.92,10.0,North,4.6,-,N/A,,Clear,10,2014-06-23 03:35:00
10:55 PM,69.4,62.6,79,29.93,10.0,North,4.6,-,N/A,,Clear,10,2014-06-23 03:55:00
11:15 PM,68.9,62.2,79,29.94,10.0,North,4.6,-,N/A,,Clear,360,2014-06-23 04:15:00
11:35 PM,66.9,62.2,85,29.95,10.0,Calm,Calm,-,N/A,,Clear,0,2014-06-23 04:35:00
11:55 PM,65.8,62.6,89,29.95,10.0,Calm,Calm,-,N/A,,Clear,0,2014-06-23 04:55:00